Regional Weather Roundup
Issued by NWS

Home | Current Version | Previous Version | Graphics & Text | Print | Product List | Glossary On
Versions: 1 2 3 4 5 6 7 8 9 10 11 12 13 14 15 16 17 18 19 20 21 22 23 24 25 26 27 28 29 30 31 32 33 34 35 36 37 38 39 40 41 42 43 44 45 46 47 48 49 50
000
ASUS43 KIND 020909
RWRIN

WEATHER ROUNDUP FOR INDIANA
NATIONAL WEATHER SERVICE INDIANAPOLIS IN
400 AM EST MON MAR 02 2015

NOTE: "FAIR" INDICATES FEW OR NO CLOUDS BELOW 12,000 FEET WITH NO
SIGNIFICANT WEATHER AND/OR OBSTRUCTIONS TO VISIBILITY.

* - STATION DOES NOT REPORT WEATHER SUCH AS PRECIPITATION OR FOG.

+ - STATION NOT QUALITY CONTROLLED BY THE NATIONAL WEATHER SERVICE.
    USE DATA WITH CAUTION...ESPECIALLY DEWPOINT AND RELATIVE
    HUMIDITY OBSERVATIONS.

INZ001>003-010>013-019-020-021000-
NORTHWEST INDIANA

CITY           SKY/WX    TMP DP  RH WIND       PRES   REMARKS
GARY /AIRPORT/ PTCLDY    17   8  67 SW5       30.43R WCI  10
KNOX *+          N/A     12   1  62 W9        30.40S WCI   0
LA PORTE +     PTCLDY    20  11  67 NW5       30.40R WCI  14
MICHIGAN CITY+ CLEAR     19  10  68 W7        30.41R WCI  10
MONTICELLO +   MOCLDY    14  10  82 W10       30.43R WCI   1
RENSSELAER +   MOCLDY    12  10  92 W6        30.43F WCI   3
VALPARAISO     PTCLDY    13   7  77 W8        30.41R WCI   2

$$

LMZ046-743>745-021000-
SOUTHERN LAKE MICHIGAN

STATION/POSITION TIME  TEMP WIND        PRES
                       AIR  DIR/SP/G
                 (UTC) (F)  (DEG/KT/KT) (MB)
MICHIGAN CITY    0900   19  250/ 13/ 16   N/A

$$

INZ004-005-014>016-021>024-021000-
NORTH CENTRAL INDIANA

CITY           SKY/WX    TMP DP  RH WIND       PRES   REMARKS
GOSHEN         CLEAR     12   7  80 W10       30.35S HAZE    WCI  -1
LOGANSPORT +   PTCLDY    16  12  86 W6        30.42R WCI   7
PERU/GRISSOM   PTCLDY    12   9  87 W8        30.40R WCI   0
ROCHESTER +    FAIR      14  12  92 W5        30.40R WCI   6
SOUTH BEND     PTCLDY    19  10  68 NW13      30.38R WCI   6
WARSAW +       PTCLDY    12   9  85 W8        30.37R WCI   1

$$

INZ006>009-017-018-025>027-021000-
NORTHEAST INDIANA

CITY           SKY/WX    TMP DP  RH WIND       PRES   REMARKS
ANGOLA *+      CLEAR     16  12  86 W8        30.30S WCI   5
AUBURN +       CLEAR     18  12  79 W7        30.34R WCI   8
FORT WAYNE     PTCLDY    13  10  88 W12       30.37S WCI  -1
HUNTINGTON +   PTCLDY    14   9  78 W8        30.38R WCI   3

$$

INZ028-029-035-036-043>045-051>053-021000-
WEST CENTRAL INDIANA

CITY           SKY/WX    TMP DP  RH WIND       PRES   REMARKS
GREENCASTLE +  MOCLDY    21  12  68 NW8       30.44S WCI  12
LAFAYETTE      MOCLDY    15   9  76 W6        30.45R WCI   6
TERRE HAUTE    MOCLDY    20  14  77 NW7       30.47S WCI  11

$$

INZ030>032-037>040-046>048-054>057-064-065-021000-
CENTRAL INDIANA

CITY           SKY/WX    TMP DP  RH WIND       PRES   REMARKS
CP ATTERBURY + MOCLDY    23  19  86 NW8       30.44R WCI  14
FRANKFORT +    MOCLDY    17  14  86 W15       30.44R WCI   3
GREENWOOD *+   MOCLDY    21  14  73 NW9       30.42S WCI  11
INDIANAPOLIS   CLOUDY    21  13  71 NW15      30.42S WCI   8
-EAGLE CREEK   MOCLDY    19  14  81 NW13      30.42R WCI   6
KOKOMO *+      PTCLDY    12   9  85 W12       30.42R WCI  -2
MARION +       PTCLDY    15  11  83 W13       30.41R WCI   1
MT COMFORT *+  MOCLDY    21   9  58 NW13      30.41F WCI   9
SHELBYVILLE    MOCLDY    24  17  74 NW12      30.41R WCI  13
ZIONSVILLE +   MOCLDY    19  12  76 NW10      30.43R WCI   7

$$

INZ033-034-041-042-049-050-058-059-021000-
EAST CENTRAL INDIANA

CITY           SKY/WX    TMP DP  RH WIND       PRES   REMARKS
MUNCIE         PTCLDY    17  13  84 W10       30.39R WCI   5

$$

INZ060-061-067>069-081>083-085>088-021000-
SOUTHWEST INDIANA

CITY           SKY/WX    TMP DP  RH WIND       PRES   REMARKS
EVANSVILLE     CLEAR     27  20  75 N9        30.50R WCI  18
HUNTINGBURG *+ CLEAR     25  18  74 N9        30.48R WCI  15
WASHINGTON +   PTCLDY    20  15  82 NW6       30.48S WCI  12

$$

INZ062-063-066-070>080-084-089>092-021000-
SOUTH CENTRAL AND SOUTHEAST INDIANA

CITY           SKY/WX    TMP DP  RH WIND       PRES   REMARKS
BLOOMINGTON    PTCLDY    21  17  84 VRB5      30.43S WCI  15
NORTH VERNON + MOCLDY    25  23  93 NW5       30.43R WCI  19
SEYMOUR +      PTCLDY    25  19  80 NW6       30.45R WCI  18

$$



USA.gov is the U.S. government's official web portal to all federal, state and local government web resources and services.